Location: Austin
(30.3000°N, 97.7500°W)
Time: 04:07:33
(UTC-06:00)

CBERS-1 - Pass Details

Date: 05 February 2026
Orbit: 765 x 772 km, 98.9° (Epoch: 15 February)

Event Time Altitude Azimuth Distance (km) Brightness Sun altitude
Rises 06:42:18 0° 9° (N) 3,240 7.2 -8.5°
Reaches altitude 10° 06:44:37 10° 7° (N) 2,312 6.4 -8.0°
Maximum altitude 06:49:41 69° 285° (WNW) 823 4.0 -6.9°
Drops below altitude 10° 06:54:43 10° 203° (SSW) 2,304 6.4 -5.9°
Sets 06:57:02 0° 200° (SSW) 3,228 7.2 -5.4°
